Weather History for KMRY - June, 2014

Change the Weather History Date:

Tuesday, June 3, 2014

  Actual Average Record
Temperature  
Mean Temperature 58 °F 58 °F  
Max Temperature 63 °F 65 °F 72 °F (2003)
Min Temperature 52 °F 51 °F 46 °F (2011)
Degree Days  
Heating Degree Days 7    
Month to date heating degree days 20  
Since 1 June heating degree days 20  
Since 1 July heating degree days 2460  
Cooling Degree Days 0    
Month to date cooling degree days 0  
Year to date cooling degree days 42  
Since 1 June cooling degree days 0  
Growing Degree Days 8 (Base 50)    
Moisture  
Dew Point 49 °F    
Average Humidity 75    
Maximum Humidity 89    
Minimum Humidity 60    
Precipitation  
Precipitation 0.01 in - 0.19 in (1999)
Month to date precipitation 0.01  
Year to date precipitation 7.39  
Since 1 July precipitation 8.67  
Sea Level Pressure  
Sea Level Pressure 29.98 in    
Wind  
Wind Speed 6 mph (SW)    
Max Wind Speed 18 mph    
Max Gust Speed 24 mph    
Visibility 9 miles    
Events Rain    
T = Trace of Precipitation, MM = Missing Value Source: NWS Daily Summary

Daily Weather History Graph

Daily Weather History Graph

Search for Another Location

Airport or City:

Trip Planner

Search our weather history database for the weather conditions in past years. The results will help you decide how hot, cold, wet, or windy it might be!

Date:

Astronomy

Jun. 03, 2014 Rise Set
Actual Time 5:49 AM PDT 8:21 PM PDT
Civil Twilight 5:19 AM PDT 8:51 PM PDT
Nautical Twilight 4:42 AM PDT 9:29 PM PDT
Astronomical Twilight 4:00 AM PDT 10:10 PM PDT
Moon 11:12 AM PDT (6/3) No Moon Set
Length of Visible Light 15h 32m
Length of Day
14h 31m
Waxing Crescent, 31% of the Moon is Illuminated
Jun 3
Waxing Crescent
Jun 5
First Quarter
Jun 12
Full
Jun 19
Last Quarter
Jun 27
New

Hourly Weather History & Observations

Time (PDT) Temp. Dew Point Humidity Pressure Visibility Wind Dir Wind Speed Gust Speed Precip Events Conditions
12:54 AM 55.0 °F 51.1 °F 86% 30.00 in 5.0 mi WSW 6.9 mph - 0.00 in Rain Light Rain
1:54 AM 54.0 °F 51.1 °F 90% 29.99 in 7.0 mi South 3.5 mph - 0.01 in   Overcast
2:04 AM 53.6 °F 50.0 °F 88% 29.95 in 10.0 mi South 3.5 mph - N/A   Overcast
2:54 AM 54.0 °F 50.0 °F 86% 29.98 in 10.0 mi South 3.5 mph - N/A   Overcast
3:54 AM 54.0 °F 48.9 °F 83% 29.99 in 9.0 mi SSW 8.1 mph - N/A   Overcast
4:16 AM 53.6 °F 48.2 °F 82% 29.95 in 10.0 mi WSW 5.8 mph - N/A   Overcast
4:29 AM 53.6 °F 48.2 °F 82% 29.95 in 10.0 mi SW 4.6 mph - N/A   Overcast
4:54 AM 53.1 °F 48.9 °F 86% 29.99 in 10.0 mi SSW 3.5 mph - N/A   Overcast
5:54 AM 53.1 °F 48.9 °F 86% 30.00 in 10.0 mi Calm Calm - N/A   Overcast
6:54 AM 54.0 °F 48.9 °F 83% 30.01 in 10.0 mi South 3.5 mph - N/A   Overcast
7:54 AM 54.0 °F 48.9 °F 83% 30.01 in 10.0 mi South 3.5 mph - N/A   Overcast
8:54 AM 55.0 °F 48.9 °F 80% 30.02 in 10.0 mi Calm Calm - N/A   Overcast
9:54 AM 57.0 °F 48.0 °F 72% 30.01 in 10.0 mi Calm Calm - N/A   Overcast
10:54 AM 57.0 °F 48.9 °F 74% 30.02 in 10.0 mi West 4.6 mph - N/A   Overcast
11:40 AM 57.2 °F 48.2 °F 72% 29.98 in 10.0 mi West 6.9 mph - N/A   Overcast
11:54 AM 60.1 °F 48.9 °F 67% 30.01 in 10.0 mi SW 6.9 mph - N/A   Overcast
12:54 PM 62.1 °F 48.9 °F 62% 30.01 in 10.0 mi WSW 10.4 mph - N/A   Mostly Cloudy
1:17 PM 62.6 °F 48.2 °F 59% 29.97 in 10.0 mi WSW 11.5 mph 18.4 mph N/A   Mostly Cloudy
1:54 PM 61.0 °F 48.9 °F 64% 29.99 in 10.0 mi SW 13.8 mph 18.4 mph N/A   Overcast
2:54 PM 61.0 °F 48.0 °F 62% 29.99 in 10.0 mi SW 12.7 mph 21.9 mph N/A   Mostly Cloudy
3:03 PM 62.6 °F 48.2 °F 59% 29.95 in 10.0 mi SW 13.8 mph 20.7 mph N/A   Scattered Clouds
3:49 PM 60.8 °F 48.2 °F 63% 29.95 in 10.0 mi SW 13.8 mph - N/A   Mostly Cloudy
3:54 PM 60.1 °F 48.0 °F 64% 29.98 in 10.0 mi SW 13.8 mph 21.9 mph N/A   Mostly Cloudy
4:54 PM 59.0 °F 48.9 °F 69% 29.96 in 10.0 mi SW 11.5 mph 19.6 mph N/A   Mostly Cloudy
5:54 PM 57.0 °F 48.0 °F 72% 29.96 in 10.0 mi SW 11.5 mph - N/A   Overcast
6:54 PM 55.9 °F 48.0 °F 75% 29.96 in 8.0 mi SW 9.2 mph - N/A   Overcast
7:38 PM 55.4 °F 48.2 °F 77% 29.92 in 8.0 mi WSW 8.1 mph - N/A   Overcast
8:54 PM 54.0 °F 48.0 °F 80% 29.96 in 9.0 mi SSW 3.5 mph - N/A   Overcast
10:54 PM 53.1 °F 48.0 °F 83% 29.97 in 8.0 mi Calm Calm - N/A   Overcast
11:54 PM 53.1 °F 48.0 °F 83% 29.97 in 9.0 mi Calm Calm - N/A   Overcast